Zurück zum Katalog

PSLV R/B

AktivVLEO
NORAD 44862·ROCKET BODY·🇮🇳 India

Gestartet Dec 11, 2019 von Satish Dhawan Space Centre

Loading…

Nächste Überflüge (nächste 24 Stunden)

TLE

AktuellSource: Space-Track

Epoche: Sep 14, 2026, 13:09 UTC

1 44862U 19089L   26257.54850416  .00028887  00000-0  38624-3 0  9995
2 44862  36.9664 204.6099 0015293 204.0607 155.9440 15.57001783375649

Verfolge PSLV R/B in Echtzeit mit AllMySat

Download on the App Store